CW4525 Weather Reports


time (UTC)temp
C
wind
direction
speed
KPH
gust
KPH
rain 1hr
cm
rain 24hr
cm
rain mn
cm
humidity
%
barometer
mb
20260506004541 20 223 4.8 19.3 0.00 0.00 0.00 62 1004.2
20260506003035 21 247 14.5 29.0 0.00 0.00 0.00 55 1004.3
20260506001540 22 225 9.7 37.0 0.00 0.00 0.00 43 1003.4
20260506000051 22 147 12.9 33.8 0.00 0.00 0.00 43 1002.3
20260505234539 23 189 16.1 37.0 0.00 0.00 0.00 41 1002.1
20260505233033 23 174 14.5 38.6 0.00 0.00 0.00 42 1001.7
20260505231635 23 219 24.1 38.6 0.00 0.00 0.00 41 1001.6
20260505230041 23 186 25.7 53.1 0.00 0.00 0.00 40 1001.2
20260505224542 24 187 25.7 41.8 0.00 0.00 0.00 40 1001.1
20260505223037 25 207 20.9 43.5 0.00 0.00 0.00 39 1001.0
20260505221531 25 206 19.3 41.8 0.00 0.00 0.00 37 1000.8
20260505220030 25 153 19.3 43.5 0.00 0.00 0.00 36 1000.6
20260505214529 26 215 17.7 37.0 0.00 0.00 0.00 35 1000.6
20260505213029 26 255 12.9 41.8 0.00 0.00 0.00 35 1000.1
20260505211539 26 212 17.7 37.0 0.00 0.00 0.00 34 999.9
20260505210028 26 221 25.7 51.5 0.00 0.00 0.00 34 1000.0
20260505204527 26 159 22.5 56.3 0.00 0.00 0.00 34 1000.0
20260505203027 26 138 27.4 54.7 0.00 0.00 0.00 33 1000.2
20260505201525 26 214 19.3 46.7 0.00 0.00 0.00 32 1000.1
20260505200025 27 170 17.7 51.5 0.00 0.00 0.00 32 1000.1
20260505194524 27 194 25.7 53.1 0.00 0.00 0.00 30 1000.1
20260505193023 27 157 19.3 59.5 0.00 0.00 0.00 30 1000.4
20260505191530 27 179 30.6 49.9 0.00 0.00 0.00 30 1000.1
20260505190022 27 242 27.4 46.7 0.00 0.00 0.00 29 1000.6
20260505184519 27 157 20.9 49.9 0.00 0.00 0.00 31 1001.0
20260505183021 27 178 30.6 57.9 0.00 0.00 0.00 30 1001.2
20260505181518 27 178 29.0 62.8 0.00 0.00 0.00 30 1001.6
20260505180015 27 214 17.7 51.5 0.00 0.00 0.00 33 1001.6
20260505174522 26 228 16.1 46.7 0.00 0.00 0.00 34 1001.8
20260505173012 26 267 24.1 45.1 0.00 0.00 0.00 31 1002.1
20260505171516 26 204 24.1 45.1 0.00 0.00 0.00 34 1002.1
20260505170011 26 195 19.3 43.5 0.00 0.00 0.00 34 1002.3
20260505164506 26 192 16.1 35.4 0.00 0.00 0.00 37 1002.6
20260505163009 25 249 25.7 48.3 0.00 0.00 0.00 36 1002.9
20260505161502 25 194 16.1 30.6 0.00 0.00 0.00 38 1003.3
20260505153053 23 201 17.7 35.4 0.00 0.00 0.00 42 1004.1
20260505151547 22 145 12.9 29.0 0.00 0.00 0.00 44 1004.4
20260505124515 16 147 6.4 19.3 0.00 0.00 0.00 58 1004.4
20260505123009 16 163 6.4 14.5 0.00 0.00 0.00 60 1004.5
20260505121505 15 196 8.0 19.3 0.00 0.00 0.00 61 1004.6
20260505120002 14 183 11.3 24.1 0.00 0.00 0.00 63 1004.6
20260505114559 13 147 9.7 19.3 0.00 0.00 0.00 65 1004.6
20260505113058 12 215 9.7 17.7 0.00 0.00 0.00 69 1004.5
20260505111602 11 164 6.4 14.5 0.00 0.00 0.00 70 1004.3
20260505110111 11 144 8.0 14.5 0.00 0.00 0.00 68 1004.2
20260505101548 13 196 8.0 17.7 0.00 0.00 0.00 61 1004.1
20260505100046 13 176 9.7 24.1 0.00 0.00 0.00 59 1004.1
20260505094543 13 148 12.9 29.0 0.00 0.00 0.00 59 1004.1
20260505093042 13 146 12.9 29.0 0.00 0.00 0.00 58 1004.2
20260505091552 13 192 12.9 29.0 0.00 0.00 0.00 58 1004.3
20260505090040 13 192 14.5 29.0 0.00 0.00 0.00 58 1004.4
20260505084539 13 186 9.7 32.2 0.00 0.00 0.00 59 1004.3
20260505083049 13 131 12.9 22.5 0.00 0.00 0.00 59 1004.6
20260505081537 13 178 9.7 20.9 0.00 0.00 0.00 60 1004.7
20260505080038 12 207 11.3 20.9 0.00 0.00 0.00 61 1004.7
20260505074535 12 188 9.7 19.3 0.00 0.00 0.00 62 1004.7
20260505073032 12 165 8.0 16.1 0.00 0.00 0.00 61 1004.8
20260505071527 13 160 9.7 17.7 0.00 0.00 0.00 59 1004.8
20260505070024 13 148 11.3 24.1 0.00 0.00 0.00 59 1004.8
20260505064532 13 144 11.3 17.7 0.00 0.00 0.00 57 1004.9
20260505063022 13 144 8.0 20.9 0.00 0.00 0.00 57 1005.0
20260505061520 13 185 12.9 24.1 0.00 0.00 0.00 56 1005.1
20260505060020 13 174 8.0 24.1 0.00 0.00 0.00 56 1005.2
20260505054535 14 179 14.5 32.2 0.00 0.00 0.00 55 1005.3
20260505053015 14 165 14.5 32.2 0.00 0.00 0.00 55 1005.4
20260505051513 13 200 14.5 25.7 0.00 0.00 0.00 56 1005.3
20260505041507 13 217 11.3 24.1 0.00 0.00 0.00 55 1005.4
20260505040002 14 157 11.3 24.1 0.00 0.00 0.00 54 1005.3
20260505034502 14 234 8.0 22.5 0.00 0.00 0.00 54 1005.2
20260505033001 14 219 12.9 24.1 0.00 0.00 0.00 53 1005.0
20260505031606 14 198 14.5 25.7 0.00 0.00 0.00 52 1005.1
20260505030122 15 223 9.7 25.7 0.00 0.00 0.00 52 1005.0
20260505024612 15 195 9.7 20.9 0.00 0.00 0.00 51 1005.1
20260505023101 15 143 11.3 33.8 0.00 0.00 0.00 50 1004.9
20260505021559 15 174 16.1 29.0 0.00 0.00 0.00 49 1005.1
20260505020108 16 122 9.7 20.9 0.00 0.00 0.00 48 1005.1
20260505014558 16 186 16.1 32.2 0.00 0.00 0.00 45 1005.0
20260505013058 16 177 6.4 22.5 0.00 0.00 0.00 43 1004.9
20260505011601 17 229 8.0 24.1 0.00 0.00 0.00 41 1004.5
20260505010110 17 185 6.4 16.1 0.00 0.00 0.00 40 1004.4